Current weather by "City, St" or "zip code"  
 
Advertise Here

Current Conditions: Rogers - Rogers Executive Airport - Carter Field, AR

Overcast


47.0 F

Last Updated on Nov 23 2020, 9:58 pm CST
Humidity: 69%
Wind Speed: SE 9.2 mph
Barometer 30.13 in
Dewpoint: 37.0 F
Visibility: 10.00 mi
Precip: --
Heat Index: NA
Wind Chill: 43 F
Current conditions at:

Rogers - Rogers Executive Airport - Carter Field, AR (KROG)

Lat: 36.36667 Lon: 94.1

Local Radar Image active severe weather and emergency alerts image image weather storm and storm spotter reports image weather observation monitoring service image
Local
Radar
Active
Alerts
Storm Reports Obs
Monitoring

Sign-up For Email & Text Message Weather Alert Notification Services


Advertise Here

Observation History for Rogers - Rogers Executive Airport - Carter Field, AR


Time Wind
(mph)
Vis
(mi)
Weather Precip (in) Temperature (F) Relative
Humidity
Wind
Chill
(F)
Heat
Index
(F)
Pressure
Air Dwpt altimeter
(in)
sea level
(mb)
Rmks
9:58 pm CST SE 9.2 10.00 Overcast -- 47.0 37.0 69% 43 NA 30.13 1020.4
8:58 pm CST SE 6.9 10.00 Fair -- 46.0 36.0 68% 42 NA 30.14 1020.8
7:58 pm CST SE 9.2 10.00 Fair -- 47.0 35.1 63% 43 NA 30.13 1020.6
6:58 pm CST SE 9.2 10.00 A Few Clouds -- 49.0 34.0 56% 45 NA 30.15 1021.4
5:58 pm CST SE 10.4 10.00 Fair -- 51.0 32.0 48% 47 NA 30.15 1021.3
3:58 pm CST SE 12.7 10.00 Fair -- 54.0 30.9 42% 50 NA 30.17 1021.9
1:58 pm CST SE 11.5 10.00 Fair -- 54.0 30.0 40% 51 NA 30.22 1023.6
12:58 pm CST SE 10.4 10.00 Fair -- 52.0 33.1 49% 48 NA 30.26 1025.0
11:58 am CST SE 12.7 10.00 Fair -- 51.0 35.1 54% 46 NA 30.29 1026.2
10:58 am CST SE 11.5 10.00 Fair -- 49.0 37.0 64% 44 NA 30.34 1027.7
9:58 am CST 3.5 10.00 Fair -- 43.0 39.0 86% NA NA 30.36 1028.7
8:58 am CST SE 5.8 9.00 Mostly Cloudy -- 39.0 37.9 96% 35 NA 30.37 1028.9
7:58 am CST SE 6.9 0.25 Fog -- 35.0 35.1 100% 29 NA 30.35 1028.6
6:58 am CST SE 6.9 0.15 Fog -- 35.0 34.0 96% 29 NA 30.34 1028.1
5:58 am CST SE 3.5 0.25 Fog -- 36.0 35.1 97% NA NA 30.34 1027.9
4:58 am CST E 3.5 1.50 Fog/Mist -- 29.0 28.0 96% NA NA 30.35 1028.3
3:58 am CST SE 3.5 9.00 Fair -- 31.0 30.0 96% NA NA 30.36 1028.9
2:58 am CST N 0.0 8.00 A Few Clouds -- 30.0 28.9 96% NA NA 30.37 1029.1
1:58 am CST N 0.0 5.00 Fog/Mist -- 30.0 28.9 96% NA NA 30.37 1029.1
12:58 am CST N 0.0 10.00 Fair -- 34.0 32.0 92% NA NA 30.38 1029.3
11:58 pm CST S 3.5 10.00 Fair -- 34.0 33.1 97% NA NA 30.39 1029.7
10:58 pm CST SE 3.5 8.00 Fair -- 36.0 35.1 97% NA NA 30.38 1029.4

Regional Weather Observation


Bentonville, Bentonville Municipal Airport/Louise M Thaden Field, AR (KVBT)

Overcast
48.0 F

Monett, MO (KHFJ)

Overcast
46.0 F

Northwest Arkansas Regional Airport, AR (KXNA)

Overcast
48.0 F

Springdale Municipal, AR (KASG)

Fair
46.0 F

Grove, Grove Municipal Airport, OK (KGMJ)

Overcast
50.0 F

Siloam Springs, Smith Field Airport, AR (KSLG)

Overcast
49.0 F